Terug naar catalogus

CZ-6A DEB

ActiefPO
NORAD 54997·DEBRIS·🇨🇳 China

Gelanceerd Nov 11, 2022 vanaf Taiyuan Satellite Launch Center

Loading…

Volgende Passages (komende 24 uur)

TLE

VersSource: Space-Track

Epoch: Sep 14, 2026, 05:39 UTC

1 54997U 22151UN  26257.23601356  .00007494  00000-0  95183-3 0  9996
2 54997  98.6217 344.8237 0069952 306.2710  53.2051 14.80260810203135

Volg CZ-6A DEB in realtime met AllMySat

Download on the App Store